SCP
0 0 0 0 0 0 0 0 0 0 0 0 0 0 0 0 0 1 1 1 1 1 1 0 0 1 0 0 0 0 0 0 0 0 0 0 0 0 0 0 0 0 0
0 0 0 0 0 0 0 0 0 0 0 0 0 0 0 0 0 0 1 1 1 1 1 0 0 0 0 0 0 0 0 0 0 0 0 0 0 0 0 0 0 0 0
0 0 0 0 0 0 0 0 0 0 0 0 0 0 0 0 0 0 0 0 0 1 1 1 0 0 0 0 0 0 0 0 0 0 0 0 0 0 0 0 0 0 0
0 0 0 0 0 0 0 0 0 0 0 0 0 0 0 0 0 0 0 0 0 0 0 1 0 0 0 0 0 0 0 0 0 0 0 0 0 0 0 0 0 0 0
0 0 0 0 0 0 0 0 0 0 0 0 0 0 0 0 0 0 0 0 0 0 0 0 0 0 0 0 0 0 0 0 0 0 0 0 0 0 0 0 0 0 0
0 0 0 0 0 0 0 0 0 0 0 0 0 0 0 0 0 0 0 0 0 0 0 0 0 0 0 0 0 0 0 0 0 0 0 0 0 0 0 0 0 0 0
0 0 0 0 0 0 0 0 0 0 0 0 0 0 0 0 0 0 0 0 0 0 0 0 0 0 0 0 0 0 0 0 0 0 0 0 0 0 0 0 0 0 0
0 0 0 0 0 0 0 0 0 0 0 0 0 0 0 0 0 0 0 0 0 0 0 0 0 0 0 0 0 0 0 0 0 0 0 0 0 0 0 0 0 0 0
0 0 0 0 0 0 0 0 0 0 0 0 0 0 0 0 0 0 0 0 0 0 0 0 0 0 0 0 0 0 0 0 0 0 0 0 0 0 0 0 0 0 0
0 0 0 0 0 0 0 0 0 0 0 0 0 0 0 0 0 0 0 0 1 1 1 0 0 0 0 0 0 0 0 0 0 0 0 0 0 0 0 0 0 0 0
0 0 0 0 0 0 0 0 0 0 0 0 0 0 0 0 0 0 0 0 0 0 1 0 0 0 0 0 0 0 0 0 0 0 0 0 0 0 0 0 0 0 0
0 0 0 0 0 0 0 0 0 0 0 0 0 0 0 0 0 0 0 0 0 0 0 0 0 0 0 0 0 0 0 0 0 0 0 0 0 0 0 0 0 0 0
0 0 0 0 0 0 0 0 0 0 0 0 0 0 0 0 0 0 0 0 0 0 0 0 0 0 0 0 0 0 0 0 0 0 0 0 0 0 0 0 0 0 0
0 0 0 0 0 0 0 0 0 0 0 0 0 0 0 0 0 0 0 0 0 0 0 0 0 0 0 0 0 0 0 0 0 0 0 0 0 0 0 0 0 0 0
0 0 0 0 0 0 0 0 0 0 0 0 0 0 0 0 0 0 0 0 0 0 0 0 0 0 0 0 0 0 0 0 0 0 0 0 0 0 0 0 0 0 0
1 1 0 0 0 0 0 0 0 0 0 0 0 0 0 0 0 0 0 0 0 0 0 0 0 0 0 0 0 0 0 0 0 0 0 0 0 0 0 0 0 0 0
1 1 1 0 0 0 0 0 0 0 0 0 0 0 0 0 0 0 0 0 0 0 0 0 0 0 0 0 0 0 0 0 0 0 0 0 0 0 0 0 0 0 0
1 1 1 1 0 0 0 0 0 0 0 0 0 0 0 0 0 0 0 0 0 0 0 0 0 0 0 0 0 0 0 0 0 0 0 0 0 0 0 0 0 0 0
0 1 1 1 1 0 0 0 0 0 0 0 0 0 0 0 0 0 0 0 0 0 0 0 0 0 0 0 0 0 0 0 0 0 0 0 0 0 0 0 0 0 0
0 0 1 1 1 1 1 0 0 0 0 0 0 0 0 0 0 0 0 0 0 0 0 0 0 0 0 0 0 0 0 0 0 0 0 0 0 0 0 0 0 0 0
0 0 0 1 1 1 1 1 1 0 0 0 0 0 0 0 0 0 0 0 0 0 0 0 0 0 0 0 0 0 0 0 0 0 0 0 0 0 0 0 0 0 0
0 0 0 1 1 1 1 1 1 1 1 1 1 1 0 0 0 0 0 0 0 0 0 0 0 0 0 0 0 0 0 0 0 0 0 0 0 0 0 0 0 0 0
0 0 0 0 1 1 1 1 1 1 1 1 1 1 1 1 0 0 0 0 0 0 0 0 0 0 0 0 0 0 0 0 0 0 0 0 0 0 0 0 0 0 0
0 0 0 0 1 1 1 1 1 1 1 1 1 1 1 1 1 1 0 0 0 0 0 0 0 0 0 0 0 0 0 0 0 0 0 0 0 0 0 0 0 0 0
0 0 0 0 0 1 1 1 1 1 1 1 1 1 0 0 0 0 0 0 0 0 0 0 0 0 0 0 0 0 0 0 0 0 0 0 0 0 0 0 0 0 0
0 0 0 0 0 0 0 1 1 1 1 1 1 0 0 0 0 0 0 0 0 0 0 0 0 0 0 0 0 0 0 0 0 0 0 0 0 0 0 0 0 0 0
Wind_Speed
1 2 5 8 9 9 9 9 9 10 10 10 11 11 11 11 11 11 11 11 11 11 12 12 12 12 13 13 13 13 13 13 13 13 13 13 13 13 13 12 11 7 13
2 3 6 7 9 9 9 8 8 9 9 10 10 10 10 11 11 11 11 10 10 11 11 11 12 12 12 12 12 12 11 12 11 11 11 10 10 11 11 11 10 7 11
4 3 5 7 8 9 9 8 8 8 8 9 9 9 9 10 10 10 10 10 10 10 10 10 11 11 11 11 10 10 10 10 10 9 8 5 5 9 10 10 9 10 9
5 4 4 6 7 8 8 7 7 7 7 8 8 8 8 9 9 9 9 9 9 9 9 9 10 10 9 9 9 9 9 9 8 8 4 4 3 6 8 8 8 8 8
5 4 5 7 7 7 7 6 6 6 6 6 7 7 7 8 8 8 8 8 8 8 8 8 8 8 8 7 8 7 7 7 7 6 3 3 3 5 7 7 7 7 6
6 5 5 7 7 6 6 6 5 5 5 5 6 6 6 6 7 7 7 7 6 7 7 7 7 7 7 6 6 6 6 6 6 3 3 3 2 3 5 6 5 5 5
6 6 6 8 7 5 4 4 5 4 4 4 5 5 4 5 6 6 6 6 6 6 6 6 6 6 5 5 5 5 5 5 3 2 2 2 2 2 3 4 4 3 3
7 6 5 7 7 6 5 4 3 3 3 4 4 4 3 3 4 6 6 5 5 5 5 5 5 5 4 4 4 4 4 4 3 1 1 1 2 1 2 2 2 2 2
8 7 7 6 5 5 6 6 5 3 3 2 2 3 2 2 2 3 4 5 4 4 4 4 4 3 3 3 2 2 2 3 2 0 1 1 2 2 0 0 1 1 1
8 7 7 6 6 5 4 5 5 5 4 4 3 2 1 1 1 2 2 3 4 4 4 4 3 3 2 2 1 2 2 2 1 0 1 2 4 4 2 2 1 1 0
7 6 6 6 6 5 4 4 4 4 5 5 4 5 3 1 1 0 1 2 3 3 4 4 3 2 2 1 1 1 1 0 0 1 1 4 5 5 4 3 3 3 2
5 5 5 5 5 5 4 4 3 3 3 4 3 4 3 2 2 1 1 2 3 3 4 4 3 2 1 1 1 1 0 1 1 1 2 6 6 5 5 5 5 4 4
2 4 4 4 4 4 3 3 3 3 3 3 4 3 3 2 2 2 1 1 1 2 2 2 2 1 1 1 1 1 1 1 1 2 3 6 6 7 7 6 6 5 5
3 3 4 4 4 4 4 3 3 2 2 3 3 3 2 1 1 1 1 1 1 0 1 1 1 2 2 2 2 2 2 2 2 2 3 6 7 8 8 8 7 6 6
3 2 2 3 3 3 3 3 2 2 2 3 3 3 3 1 1 1 1 1 1 1 1 1 2 2 3 3 3 3 3 3 3 3 3 5 7 8 8 8 8 8 7
1 1 2 2 2 2 2 2 2 2 2 2 2 3 3 2 2 1 1 1 1 2 2 2 3 3 2 2 3 4 4 3 3 4 3 4 6 8 9 9 9 9 9
0 1 1 1 2 2 1 2 1 1 2 2 2 3 3 3 3 2 1 1 2 2 2 2 2 2 2 2 3 3 4 4 4 4 4 4 4 6 8 10 10 10 10
1 0 1 1 1 1 1 1 1 1 1 1 1 2 3 3 3 2 2 2 2 1 1 1 1 1 2 3 3 3 3 3 5 5 4 4 4 4 5 8 9 10 10
0 0 0 1 1 1 1 1 1 1 1 1 2 2 3 3 3 2 2 3 2 1 1 2 1 1 2 3 3 3 3 4 4 4 4 5 5 4 4 5 7 7 9
1 1 0 1 1 1 1 1 1 2 1 2 2 2 3 3 3 2 2 3 2 2 2 2 2 2 2 2 3 4 4 4 3 4 5 4 4 4 4 4 3 4 7
2 2 1 1 2 1 1 1 1 2 2 2 2 3 3 3 3 2 2 3 3 2 3 3 2 3 3 1 2 3 4 4 4 3 3 3 3 3 3 3 2 2 3
2 2 2 1 1 1 1 1 1 1 1 1 2 2 3 3 3 2 2 2 2 2 3 3 3 2 2 1 1 2 3 3 2 3 3 3 3 2 3 3 3 4 3
2 2 2 2 2 2 1 1 2 1 1 1 2 2 3 3 2 2 2 2 2 2 3 3 2 3 3 3 2 1 2 3 3 3 3 3 2 2 3 3 4 4 3
3 3 2 2 2 2 1 1 1 1 2 3 3 3 3 3 3 3 3 3 3 3 3 3 2 3 3 3 3 3 3 2 2 3 3 2 3 3 4 3 4 4 3
2 2 3 3 3 2 1 1 1 2 3 2 2 3 3 3 3 3 3 3 3 3 4 4 3 3 3 4 3 3 3 3 3 3 5 4 4 4 3 4 4 3 3
3 3 3 3 3 4 3 2 1 2 3 3 4 4 3 3 3 4 4 4 4 4 4 4 4 4 4 4 4 3 2 3 3 3 5 5 6 4 4 4 4 3 3
Wind_Direction
254 210 171 144 135 128 122 117 118 117 117 119 120 118 117 117 116 113 111 108 106 103 101 98 98 95 93 92 90 87 84 81 80 78 78 79 82 83 81 77 71 63 72
158 167 156 143 138 131 124 120 118 123 123 120 121 122 120 118 117 113 111 107 107 106 103 102 99 96 94 94 91 89 87 83 80 76 71 69 79 83 83 80 78 76 75
108 117 131 132 135 133 127 124 122 126 128 125 123 126 124 120 118 114 112 111 110 110 109 107 104 100 97 96 95 92 91 88 83 76 67 46 63 86 85 82 79 78 76
104 98 101 110 121 128 130 131 129 127 128 127 126 124 126 125 123 118 117 115 112 110 110 112 108 104 100 97 94 92 91 90 85 76 53 35 30 84 86 81 77 74 73
83 76 85 98 108 115 122 128 130 129 129 129 128 129 128 129 129 124 121 120 118 115 115 114 112 108 104 99 95 92 93 91 83 69 47 29 17 77 81 77 74 70 66
64 59 73 87 99 111 115 117 123 130 134 131 130 131 131 131 134 133 129 126 126 125 124 121 117 112 106 99 95 91 91 92 81 63 40 17 2 68 79 75 72 69 65
68 60 68 73 75 84 98 112 112 116 119 121 125 131 138 139 141 143 141 136 136 136 133 129 126 121 114 105 98 95 92 92 89 69 36 2 339 59 81 80 73 67 57
63 53 57 67 67 66 63 70 84 97 108 110 114 119 124 136 148 155 153 150 145 148 150 144 136 135 130 118 104 97 92 87 88 66 16 328 314 9 88 83 71 59 54
54 48 40 41 50 58 56 50 47 50 66 83 105 114 110 112 138 151 162 163 163 167 167 162 155 149 146 133 113 92 93 93 95 42 312 301 299 301 292 27 58 53 59
49 44 37 35 33 35 47 50 45 39 38 39 44 61 95 123 141 142 161 175 182 187 186 179 175 174 173 153 127 109 102 82 96 276 286 276 281 280 274 271 263 253 273
43 37 31 31 28 27 34 41 47 43 39 42 41 35 30 21 34 145 203 203 203 198 197 196 202 202 195 187 177 154 120 116 203 257 259 270 270 264 263 264 267 266 262
40 32 27 28 26 26 27 32 29 31 32 34 29 28 22 10 355 349 240 223 230 228 219 214 213 215 211 202 236 213 188 217 223 252 261 273 269 264 267 266 264 264 265
53 40 27 25 26 27 23 28 26 22 22 27 27 22 17 16 8 6 0 336 289 261 252 236 223 212 206 209 213 220 223 221 232 250 263 269 270 269 269 269 266 262 264
45 34 24 25 30 25 24 22 28 24 17 15 11 19 21 8 355 349 342 341 337 324 288 268 242 230 224 228 222 227 232 230 235 241 257 264 266 267 268 269 268 264 262
40 24 17 25 29 27 33 23 24 19 17 9 14 15 14 355 325 318 315 325 320 302 266 262 266 249 239 239 235 229 237 239 241 240 253 260 262 264 265 268 266 262 260
21 357 4 22 16 27 31 21 19 20 19 20 14 9 8 358 339 315 308 303 304 302 280 259 251 252 249 247 250 241 238 239 240 240 241 254 259 260 261 264 265 264 263
309 340 354 10 11 17 10 9 18 21 28 17 5 4 3 4 353 339 304 302 302 304 292 289 284 276 272 266 260 252 245 243 242 241 239 239 248 256 255 260 261 262 262
20 4 349 357 352 346 349 359 355 13 26 9 3 357 353 356 353 346 331 308 316 315 312 288 293 297 283 278 273 260 248 242 241 240 239 237 236 245 253 257 259 259 260
316 311 314 330 333 304 317 356 357 9 11 2 4 358 349 350 347 340 326 326 332 322 302 300 289 271 280 289 279 272 262 250 244 241 240 239 236 237 241 252 251 254 259
346 339 326 314 328 322 315 1 9 7 352 357 348 343 350 347 347 345 339 338 342 334 318 310 299 276 261 278 290 281 269 255 247 241 242 242 237 238 239 245 251 256 255
6 358 357 356 338 359 317 279 286 290 309 319 320 338 338 340 340 340 338 333 337 322 315 314 297 280 265 279 287 299 285 257 246 247 241 238 238 241 237 237 244 253 263
348 334 339 330 331 319 286 268 291 291 280 284 311 319 328 328 329 323 322 319 322 315 323 328 321 299 278 247 246 288 295 295 273 254 246 237 246 249 247 248 246 243 247
343 323 319 304 308 303 329 16 13 14 354 341 329 313 310 307 308 312 308 305 310 301 297 299 303 294 288 269 238 226 247 262 310 284 253 242 247 261 265 267 259 254 252
303 311 316 316 325 327 353 51 57 331 289 291 306 306 315 306 301 299 305 300 297 288 293 291 284 284 281 282 271 256 258 239 255 293 292 277 275 265 264 265 259 250 249
316 328 330 341 344 344 357 317 253 278 279 302 324 325 323 316 311 307 301 291 287 284 288 291 286 276 264 270 276 283 273 274 245 246 277 292 293 266 256 257 255 254 255
352 357 355 359 354 352 346 332 301 288 304 323 325 320 317 313 310 313 309 297 289 285 284 281 276 272 265 266 261 264 267 260 256 246 257 278 282 282 272 253 247 254 255